Location: Newark
(42.8481°N, 0.4872°E)
Time: 07:39:31
(UTC+00:00)

Vanguard 2 - Pass Details

Date: 04 November 2020
Orbit: 554 x 2937 km, 32.9° (Epoch: 28 November)

Event Time Altitude Azimuth Distance (km) Brightness Sun altitude
Rises 00:02:28 0° 276° (W) 6,224 12.1 -62.2°
Enters shadow 00:03:48 - 274° (W) 5,994 12.0 -62.2°
Reaches altitude 10° 00:07:13 10° 266° (W) 5,456 - -62.1°
Maximum altitude 00:20:10 28° 216° (SW) 4,424 - -61.4°
Drops below altitude 10° 00:33:21 10° 167° (SSE) 5,511 - -60.5°
Sets 00:38:16 0° 156° (SSE) 6,290 - -60.0°
